Regional Weather Roundup
Issued by NWS

Home | Current Version | Previous Version | Text Only | Print | Product List | Glossary On
Versions: 1 2 3 4 5 6 7 8 9 10 11 12 13 14 15 16 17 18 19 20 21 22 23 24 25 26 27
000
ASUS43 KMPX 100810
RWRMN
WEATHER ROUNDUP FOR MINNESOTA
NATIONAL WEATHER SERVICE TWIN CITIES/CHANHASSEN MN
300 AM CDT MON MAY 10 2021


NOTE: "FAIR" INDICATES FEW OR NO CLOUDS BELOW 12,000 FEET WITH NO
SIGNIFICANT WEATHER AND/OR OBSTRUCTIONS TO VISIBILITY. N/A MEANS
CURRENT SKY AND/OR WEATHER CONDITIONS ARE NOT AVAILABLE.

MNZ060>063-068>070-100900-
   Twin Cities Metro

CITY           SKY/WX    TMP DP  RH WIND       PRES   REMARKS
TWIN CITIES    MOCLDY    44  26  49 NE8       30.13S
ST PAUL        CLOUDY    44  27  51 NE9       30.14S
CRYSTAL        CLOUDY    43  26  51 NE7       30.13S
BLAINE         CLOUDY    43  30  61 N5        30.14S
LAKEVILLE      PTCLDY    41  25  52 NE6       30.12R
EDEN PRAIRIE   PTCLDY    43  28  55 NE8       30.11S
SOUTH ST PAUL  PTCLDY    44  26  49 NE6       30.13S
$$
MNZ001>005-007-008-013>017-022>024-027-028-100900-
   Northwest Minnesota

CITY           SKY/WX    TMP DP  RH WIND       PRES   REMARKS
BEMIDJI        CLOUDY    35  24  63 NE3       30.21S
HALLOCK        CLOUDY    39  25  56 N5        30.26S
ROSEAU           N/A     41 N/A N/A N7        30.26S
WARROAD        CLOUDY    43  28  56 NE10      30.26S
THIEF RVR FALL CLOUDY    38  24  57 N6        30.25S
CROOKSTON      CLEAR     30  19  64 NE6       30.25S WCI  24
FOSSTON        CLEAR     28  19  69 CALM      30.22S
DETROIT LAKES  CLEAR     39  23  52 NE6       30.19S
MOORHEAD       CLEAR     36  19  51 NE5       30.21S
PARK RAPIDS    CLOUDY    40  23  50 NE5       30.18S
MAHNOMEN       FAIR      29  21  71 NE6       30.21S WCI  23
$$
MNZ006-009>011-018-025>026-100900-
   North Central Minnesota

CITY           SKY/WX    TMP DP  RH WIND       PRES   REMARKS
BAUDETTE       CLOUDY    38  25  59 NE7       30.24S
FLAG ISLAND    MOCLDY    39  23  52 E9        30.26S
INTL FALLS     CLOUDY    39  25  57 NE7       30.22S
WASKISH        CLOUDY    36  23  60 NE3       30.23S
BIG FORK       PTCLDY    30  23  74 CALM      30.25S
LONGVILLE        N/A     39  21  48 CALM      30.19R
GRAND RAPIDS   CLOUDY    38  23  55 CALM      30.21R
CRANE LAKE     CLOUDY    36  27  69 CALM      30.24R
ORR            CLOUDY    32  25  74 CALM      30.18S
COOK           MOCLDY    28  23  80 CALM      30.19S
WALKER         CLOUDY    39  24  56 N3        30.19S
$$
MNZ012-019>021-037-100900-
   Northeast Minnesota

CITY           SKY/WX    TMP DP  RH WIND       PRES   REMARKS
DULUTH         PTCLDY    35  27  72 N5        30.16S WCI  31
ELY            CLOUDY    36  25  64 CALM      30.18S
HIBBING        PTCLDY    34  22  61 N5        30.18S WCI  30
EVELETH        CLEAR     35  26  68 N3        30.19R
DULUTH HARBOR  CLEAR     39  30  70 CALM      30.19S
TWO HARBORS    CLEAR     36  25  64 N3        30.16S
SILVER BAY     CLOUDY    36  25  64 CALM      30.17R
GRAND MARAIS     N/A     38  26  62 N9G20     30.17
G MARAIS ARPRT CLEAR     30  25  80 NW7       30.14S WCI  23
$$
MNZ029>031-032-039>041-046>048-054>057-064-100900-
   West Central Minnesota

CITY           SKY/WX    TMP DP  RH WIND       PRES   REMARKS
FERGUS FALLS   PTCLDY    39  27  60 NE5       30.14S
WHEATON        MOCLDY    43  27  52 N3        30.18R
MORRIS         MOCLDY    45  21  39 NE9       30.16R
ALEXANDRIA     MOCLDY    41  29  62 NE9       30.16S
ELBOW LAKE     FAIR      42  30  62 E7        30.17R
WADENA         PTCLDY    36  27  69 NE3       30.18S
GLENWOOD       CLOUDY    41  28  60 NE10      30.15S
APPLETON       MOCLDY    45  27  49 E13       30.12F
BENSON         MOCLDY    43  27  52 SE12G17   30.14F
ORTONVILLE     MOCLDY    43  28  56 N8        30.14R
MADISON        MOCLDY    46  28  49 NE9       30.14R
WILLMAR        FAIR      45  28  53 E10G17    30.16S
$$
MNZ033>034-036-042>043-049>051-058-059-100900-
   Central Minnesota

CITY           SKY/WX    TMP DP  RH WIND       PRES   REMARKS
ST CLOUD       CLOUDY    40  28  62 NE7       30.15S
SAUK CENTRE    CLOUDY    41  28  59 E9        30.16S
PAYNESVILLE    MOCLDY    39  32  75 NE7       30.16S
AITKIN         CLOUDY    28  27  93 CALM      30.19R
PINE RIVER     CLOUDY    39  28  65 CALM      30.22R
BRAINERD       MOCLDY    37  26  64 NE5       30.18S
STAPLES        PTCLDY    39  28  65 CALM      30.18S
LONG PRAIRIE   CLOUDY    39  28  65 NE7       30.17S
LITTLE FALLS   MOCLDY    39  23  52 CALM      30.17S
CAMP RIPLEY    CLOUDY    39  29  66 NE6       30.18S
LITCHFIELD     MOCLDY    43  30  61 NE8       30.14S
BUFFALO        PTCLDY    41  28  58 MISG      30.16R
MAPLE LAKE     PTCLDY    41  30  65 NE3       30.16R
HUTCHINSON     MOCLDY    43  30  60 NE8       30.14S
$$
MNZ037-044-045-052-053-100900-
   East Central Minnesota

CITY           SKY/WX    TMP DP  RH WIND       PRES   REMARKS
PRINCETON      CLOUDY    43  30  61 NE5       30.16S
MORA           MOCLDY    37  28  70 NE3       30.18S
CAMBRIDGE      CLOUDY    43  27  52 NE5       30.16S
RUSH CITY      CLOUDY    40  26  57 NE6       30.17S
MOOSE LAKE     CLEAR     30  28  93 CALM      30.17R
CLOQUET        CLEAR     27  25  93 NW3       30.16S
$$
MNZ071>073-080-081-089-090-097-098-100900-
   Southwest Minnesota

CITY           SKY/WX    TMP DP  RH WIND       PRES   REMARKS
MONTEVIDEO     MOCLDY    45  23  42 E14       30.11S
GRANITE FALLS  CLOUDY    49  29  46 E13G21    30.11S
CANBY          CLOUDY    46  27  47 W8        30.12S
MARSHALL       CLOUDY    47  29  49 NW7       30.10R
REDWOOD FALLS  CLOUDY    46  26  45 E10       30.10F
OLIVIA         MOCLDY    45  27  49 NE7       30.11S
PIPESTONE        N/A     45  32  61 NW6       30.10S
WINDOM         MOCLDY    45  34  65 E3        30.09R
WORTHINGTON    CLOUDY    50  29  44 NW13      30.10S
JACKSON        CLOUDY    45  32  61 NW5       30.10R
TRACY          CLOUDY    47  29  48 NW6       30.09S
SLAYTON        CLOUDY    46  30  53 W8        30.10F
$$
MNZ065>067-074>077-082>085-091>093-100900-
   South Central Minnesota

CITY           SKY/WX    TMP DP  RH WIND       PRES   REMARKS
MANKATO        CLOUDY    48  27  44 NE12      30.10R
NEW ULM        MOCLDY    46  25  42 N3        30.11R
ST JAMES       CLOUDY    46  27  46 CALM      30.09S
FAIRMONT       CLOUDY    47  25  42 NE6       30.09S
GLENCOE        MOCLDY    42  28  57 NE5       30.12S
FARIBAULT      MOCLDY    43  27  52 N5        30.10S
OWATONNA       MOCLDY    45  27  49 NE6       30.08F
WASECA         CLOUDY    45  27  49 E7        30.10S
ALBERT LEA     CLOUDY    45  28  53 NE6       30.07F
$$
MNZ078>079-086>088-094>096-100900-
   Southeast Minnesota

CITY           SKY/WX    TMP DP  RH WIND       PRES   REMARKS
ROCHESTER      MOCLDY    42  25  50 NE8       30.08S
RED WING       PTCLDY    41  25  52 NE7       30.10F
STANTON        PTCLDY    38  28  64 NE7       30.10S
DODGE CENTER   MOCLDY    43  23  45 NE5       30.08F
WINONA         PTCLDY    45  30  57 N3        30.11R
AUSTIN         MOCLDY    45  27  49 NE6       30.08R
PRESTON        MOCLDY    41  28  58 NE8       30.07S
$$
ABBREVIATIONS USED IN REMARKS
   TC - TEMPERATURES IN CELSIUS
  WCI - WIND CHILL INDEX
   HX - HEAT INDEX
  VSB - VISIBILITY
$$



USA.gov is the U.S. government's official web portal to all federal, state and local government web resources and services.